Allentown, PA

10:17 AM EDT on October 22, 2017 (GMT -0400)
Lehigh Valley International

Weather History for KABE - April, 2014

Change the Weather History Date:

Saturday, April 26, 2014

  Actual Average Record
Temperature  
Mean Temperature 57 °F 54 °F  
Max Temperature 69 °F 65 °F 92 °F (1990)
Min Temperature 44 °F 42 °F 30 °F (1967)
Degree Days  
Heating Degree Days 8 12  
Month to date heating degree days 397 413  
Since 1 July heating degree days 5957 5525  
Cooling Degree Days 0 0  
Month to date cooling degree days 7 0  
Year to date cooling degree days 7 0  
Growing Degree Days 7 (Base 50)    
Moisture  
Dew Point 41 °F    
Average Humidity 62    
Maximum Humidity 92    
Minimum Humidity 31    
Precipitation  
Precipitation T in 0.12 in 2.08 in (1929)
Month to date precipitation 3.06 3.09  
Year to date precipitation 14.49 12.21  
Snow  
Snow 0.00 in 0.00 in 0.00 in ()
Month to date snowfall 0.3 1.0  
Since 1 July snowfall 68.1 32.9  
Snow Depth 0.00 in    
Sea Level Pressure  
Sea Level Pressure 29.76 in    
Wind  
Wind Speed 7 mph (NW)    
Max Wind Speed 23 mph    
Max Gust Speed 31 mph    
Visibility 9 miles    
Events Rain    
T = Trace of Precipitation, MM = Missing Value Source: NWS Daily Summary

Daily Weather History Graph

Daily Weather History Graph

Search for Another Location

Airport or City:

Trip Planner

Search our weather history database for the weather conditions in past years. The results will help you decide how hot, cold, wet, or windy it might be!

Date:

Astronomy

Apr. 26, 2014 Rise Set
Actual Time 6:07 AM EDT 7:52 PM EDT
Civil Twilight 5:37 AM EDT 8:21 PM EDT
Nautical Twilight 5:02 AM EDT 8:57 PM EDT
Astronomical Twilight 4:24 AM EDT 9:35 PM EDT
Moon 4:30 AM EDT (4/26) 5:17 PM EDT (4/26)
Length of Visible Light 14h 43m
Length of Day
13h 45m
Waning Crescent, 8% of the Moon is Illuminated
Apr 26
Waning Crescent
Apr 29
New
May 6
First Quarter
May 14
Full
May 21
Last Quarter

Hourly Weather History & Observations

Time (EDT) Temp. Windchill Dew Point Humidity Pressure Visibility Wind Dir Wind Speed Gust Speed Precip Events Conditions
12:51 AM 46.0 °F 43.1 °F 41.0 °F 83% 29.75 in 10.0 mi NE 5.8 mph - 0.04 in Rain Light Rain
1:51 AM 44.6 °F 42.2 °F 42.8 °F 93% 29.73 in 10.0 mi NNE 4.6 mph - N/A   Overcast
2:11 AM 44.6 °F - 42.8 °F 93% 29.73 in 7.0 mi Calm Calm - 0.00 in   Overcast
2:33 AM 44.6 °F 42.2 °F 42.8 °F 93% 29.72 in 4.0 mi NNE 4.6 mph - 0.00 in Rain Light Rain
2:40 AM 44.6 °F 42.2 °F 42.8 °F 93% 29.72 in 4.0 mi NNE 4.6 mph - 0.00 in Rain Light Rain
2:51 AM 45.0 °F 42.6 °F 42.1 °F 90% 29.73 in 6.0 mi NNE 4.6 mph - 0.00 in Rain Light Rain
3:05 AM 44.6 °F - 42.8 °F 93% 29.73 in 8.0 mi Calm Calm - N/A   Overcast
3:51 AM 45.0 °F - 42.1 °F 90% 29.74 in 10.0 mi Calm Calm - N/A   Overcast
4:19 AM 44.6 °F - 42.8 °F 93% 29.74 in 7.0 mi Calm Calm - N/A   Overcast
4:41 AM 44.6 °F - 42.8 °F 93% 29.74 in 5.0 mi Calm Calm - N/A   Overcast
4:51 AM 45.0 °F 42.6 °F 43.0 °F 93% 29.75 in 5.0 mi West 4.6 mph - N/A   Overcast
5:04 AM 44.6 °F 42.2 °F 42.8 °F 93% 29.75 in 6.0 mi West 4.6 mph - N/A   Overcast
5:30 AM 44.6 °F - 42.8 °F 93% 29.75 in 6.0 mi Calm Calm - N/A   Overcast
5:51 AM 45.0 °F 43.5 °F 42.1 °F 90% 29.76 in 6.0 mi WNW 3.5 mph - N/A   Overcast
6:51 AM 46.0 °F - 43.0 °F 89% 29.78 in 5.0 mi Calm Calm - N/A   Mostly Cloudy
7:51 AM 51.1 °F - 43.0 °F 74% 29.80 in 10.0 mi WNW 5.8 mph - N/A   Clear
8:51 AM 54.0 °F - 42.1 °F 64% 29.80 in 10.0 mi NW 6.9 mph - N/A   Clear
9:51 AM 57.0 °F - 42.1 °F 57% 29.81 in 10.0 mi WNW 8.1 mph - N/A   Clear
10:51 AM 59.0 °F - 41.0 °F 51% 29.81 in 10.0 mi NW 9.2 mph - N/A   Clear
11:51 AM 60.8 °F - 41.0 °F 48% 29.79 in 10.0 mi West 9.2 mph 19.6 mph N/A   Partly Cloudy
12:51 PM 64.0 °F - 41.0 °F 43% 29.75 in 10.0 mi North 6.9 mph - N/A   Clear
1:51 PM 64.0 °F - 39.0 °F 40% 29.74 in 10.0 mi SSW 9.2 mph - N/A   Overcast
2:51 PM 66.9 °F - 43.0 °F 42% 29.71 in 10.0 mi SW 11.5 mph - N/A   Mostly Cloudy
3:51 PM 66.0 °F - 42.1 °F 42% 29.69 in 10.0 mi WSW 11.5 mph - N/A   Mostly Cloudy
4:51 PM 68.0 °F - 42.8 °F 40% 29.69 in 10.0 mi Variable 4.6 mph - N/A   Mostly Cloudy
5:51 PM 69.1 °F - 37.0 °F 31% 29.70 in 10.0 mi WNW 10.4 mph - N/A   Scattered Clouds
6:51 PM 68.0 °F - 37.9 °F 33% 29.72 in 10.0 mi West 9.2 mph - N/A   Scattered Clouds
7:51 PM 61.0 °F - 44.1 °F 54% 29.78 in 10.0 mi North 6.9 mph - N/A   Mostly Cloudy
8:51 PM 57.0 °F - 39.9 °F 53% 29.83 in 10.0 mi North 16.1 mph 20.7 mph N/A   Partly Cloudy
9:51 PM 55.0 °F - 34.0 °F 45% 29.87 in 10.0 mi NNW 10.4 mph - N/A   Clear
10:51 PM 51.1 °F - 35.1 °F 54% 29.90 in 10.0 mi North 4.6 mph - N/A   Clear
11:51 PM 48.0 °F - 34.0 °F 58% 29.91 in 10.0 mi North 5.8 mph - N/A   Clear